Location: Beuvrequen
(50.8014°N, 1.6652°E)
Time: 03:51:42
(UTC+00:00)

Okean 1 Rocket - Pass Details

Date: 16 October 2021
Orbit: 607 x 633 km, 82.5° (Epoch: 05 December)

Event Time Altitude Azimuth Distance (km) Brightness Sun altitude
Rises 18:33:59 0° 206° (SSW) 2,856 6.8 -15.8°
Reaches altitude 10° 18:36:16 10° 214° (SSW) 1,957 6.0 -16.2°
Maximum altitude 18:40:24 43° 286° (WNW) 859 4.3 -16.8°
Drops below altitude 10° 18:44:35 10° 359° (N) 1,978 5.7 -17.5°
Sets 18:46:55 0° 6° (N) 2,890 6.5 -17.8°
